Offutt Air Force Base, NE

10:20 PM CDT on September 25, 2016 (GMT -0500)
Offutt Air Force Base

Weather History for KOFF - September, 2013

Change the Weather History Date:

Sunday, September 15, 2013

  Actual Average Record
Temperature  
Mean Temperature 66 °F -  
Max Temperature 69 °F 75 °F 87 °F (2015)
Min Temperature 62 °F 55 °F 35 °F (2007)
Growing Degree Days 16 (Base 50)    
Moisture  
Dew Point 59 °F    
Average Humidity 84    
Maximum Humidity 100    
Minimum Humidity 60    
Precipitation  
Precipitation 0.44 in - - ()
Sea Level Pressure  
Sea Level Pressure 29.96 in    
Wind  
Wind Speed 6 mph (East)    
Max Wind Speed 16 mph    
Max Gust Speed 24 mph    
Visibility 9 miles    
Events Rain , Thunderstorm    
Averages and records for this station are not official NWS values.
T = Trace of Precipitation, MM = Missing Value Source: NWS Daily Summary

Daily Weather History Graph

Daily Weather History Graph

Search for Another Location

Airport or City:

Trip Planner

Search our weather history database for the weather conditions in past years. The results will help you decide how hot, cold, wet, or windy it might be!

Date:

Astronomy

Sep. 15, 2013 Rise Set
Actual Time 7:04 AM CDT 7:32 PM CDT
Civil Twilight 6:36 AM CDT 7:59 PM CDT
Nautical Twilight 6:04 AM CDT 8:32 PM CDT
Astronomical Twilight 5:30 AM CDT 9:05 PM CDT
Moon 5:02 PM CDT (9/15) 2:41 AM CDT (9/15)
Length of Visible Light 13h 23m
Length of Day
12h 27m
Waxing Gibbous, 82% of the Moon is Illuminated
Sep 15
Waxing Gibbous
Sep 19
Full
Sep 26
Last Quarter
Oct 4
New
Oct 11
First Quarter

Hourly Weather History & Observations

Time (CDT) Temp. Dew Point Humidity Pressure Visibility Wind Dir Wind Speed Gust Speed Precip Events Conditions
12:58 AM 69.3 °F 54.7 °F 60% 29.88 in 10.0 mi SSE 9.2 mph - N/A   Mostly Cloudy
1:58 AM 68.7 °F 54.3 °F 60% 29.88 in 10.0 mi SSE 9.2 mph - N/A   Mostly Cloudy
2:25 AM 68.0 °F 57.2 °F 68% 29.88 in 10.0 mi South 8.1 mph - N/A Rain Light Rain
2:33 AM 66.2 °F 57.2 °F 73% 29.88 in 10.0 mi SSE 5.8 mph - N/A   Mostly Cloudy
2:41 AM 66.2 °F 57.2 °F 73% 29.88 in 10.0 mi South 4.6 mph - N/A Thunderstorm Thunderstorm
2:42 AM 66.2 °F 57.2 °F 73% 29.88 in 10.0 mi South 4.6 mph - N/A   Mostly Cloudy
2:51 AM 66.2 °F 57.2 °F 73% 29.88 in 10.0 mi SSE 3.5 mph - N/A Thunderstorm Thunderstorm
2:54 AM 66.2 °F 57.2 °F 73% 29.88 in 6.0 mi South 5.8 mph - N/A Rain , Thunderstorm Light Thunderstorms and Rain
2:58 AM 66.2 °F 57.4 °F 73% 29.88 in 5.0 mi South 5.8 mph - 0.00 in Rain , Thunderstorm Light Thunderstorms and Rain
3:09 AM 64.4 °F 59.0 °F 83% 29.87 in 9.0 mi SE 4.6 mph - N/A Rain , Thunderstorm Light Thunderstorms and Rain
3:13 AM 64.4 °F 59.0 °F 83% 29.87 in 10.0 mi SE 5.8 mph - N/A Thunderstorm Thunderstorm
3:21 AM 64.4 °F 59.0 °F 83% 29.87 in 10.0 mi ESE 4.6 mph - N/A   Mostly Cloudy
3:35 AM 64.4 °F 59.0 °F 83% 29.87 in 10.0 mi ESE 5.8 mph - N/A Rain , Thunderstorm Light Thunderstorms and Rain
3:47 AM 64.4 °F 59.0 °F 83% 29.86 in 10.0 mi SE 5.8 mph - N/A   Mostly Cloudy
3:54 AM 64.4 °F 59.0 °F 83% 29.86 in 10.0 mi SE 8.1 mph - N/A Thunderstorm Thunderstorm
3:58 AM 63.9 °F 59.7 °F 86% 29.86 in 6.0 mi SE 5.8 mph - 0.05 in Rain , Thunderstorm Light Thunderstorms and Rain
4:13 AM 62.6 °F 60.8 °F 94% 29.86 in 10.0 mi ESE 4.6 mph - N/A Rain , Thunderstorm Light Thunderstorms and Rain
4:25 AM 62.6 °F 60.8 °F 94% 29.87 in 10.0 mi NNE 1.2 mph - N/A Thunderstorm Mostly Cloudy
4:26 AM 62.6 °F 60.8 °F 94% 29.87 in 10.0 mi Calm Calm - N/A Rain , Thunderstorm Light Rain
4:33 AM 62.6 °F 60.8 °F 94% 29.87 in 5.0 mi Calm Calm - N/A Rain , Thunderstorm Light Thunderstorms and Rain
4:38 AM 62.6 °F 59.0 °F 88% 29.87 in 2.0 mi ESE 2.3 mph - N/A Rain , Thunderstorm Thunderstorms and Rain
4:43 AM 62.6 °F 60.8 °F 94% 29.87 in 2.0 mi Calm Calm - N/A Rain , Thunderstorm Heavy Thunderstorms and Rain
4:48 AM 62.6 °F 60.8 °F 94% 29.88 in 2.0 mi East 4.6 mph - N/A Rain , Thunderstorm Thunderstorms and Rain
4:53 AM 62.6 °F 60.8 °F 94% 29.88 in 2.5 mi East 1.2 mph - N/A Rain , Thunderstorm Heavy Thunderstorms and Rain
4:58 AM 62.6 °F 60.8 °F 94% 29.89 in 4.0 mi Variable 1.2 mph - 0.21 in Rain , Thunderstorm Heavy Thunderstorms and Rain
5:06 AM 62.6 °F 60.8 °F 94% 29.89 in 5.0 mi Variable 3.5 mph - N/A Rain , Thunderstorm Thunderstorms and Rain
5:16 AM 62.6 °F 60.8 °F 94% 29.89 in 6.0 mi SE 4.6 mph - N/A Rain , Thunderstorm Light Thunderstorms and Rain
5:18 AM 62.6 °F 60.8 °F 94% 29.89 in 9.0 mi SSE 4.6 mph - N/A Rain Light Rain
5:24 AM 62.6 °F 62.6 °F 100% 29.89 in 9.0 mi South 3.5 mph - N/A Rain , Thunderstorm Rain
5:32 AM 62.6 °F 60.8 °F 94% 29.88 in 10.0 mi Variable 1.2 mph - N/A Rain , Thunderstorm Light Thunderstorms and Rain
5:45 AM 62.6 °F 60.8 °F 94% 29.89 in 9.0 mi South 6.9 mph - N/A Rain Light Rain
5:47 AM 62.6 °F 62.6 °F 100% 29.90 in 8.0 mi South 8.1 mph - N/A Rain Rain
5:58 AM 63.0 °F 62.1 °F 97% 29.89 in 6.0 mi SE 5.8 mph - 0.18 in Rain Rain
6:03 AM 62.6 °F 60.8 °F 94% 29.90 in 4.0 mi SE 4.6 mph - N/A Rain Rain
6:13 AM 62.6 °F 62.6 °F 100% 29.90 in 3.0 mi Calm Calm - N/A Rain Heavy Rain
6:40 AM 62.6 °F 62.6 °F 100% 29.90 in 7.0 mi SSW 3.5 mph - N/A Rain Light Rain
6:45 AM 62.6 °F 62.6 °F 100% 29.90 in 10.0 mi WSW 2.3 mph - N/A Rain Light Rain
7:00 AM 62.6 °F 62.6 °F 100% 29.90 in 7.0 mi WSW 2.3 mph - N/A Rain Light Rain
7:07 AM 62.6 °F 62.6 °F 100% 29.89 in 9.0 mi NNW 2.3 mph - N/A   Light Drizzle
7:24 AM 62.6 °F 62.6 °F 100% 29.90 in 10.0 mi WNW 1.2 mph - N/A   Scattered Clouds
7:29 AM 62.6 °F 62.6 °F 100% 29.90 in 10.0 mi NW 1.2 mph - N/A   Mostly Cloudy
7:49 AM 62.6 °F 62.6 °F 100% 29.90 in 10.0 mi WNW 5.8 mph - N/A   Scattered Clouds
7:58 AM 63.3 °F 63.1 °F 99% 29.91 in 10.0 mi Variable 2.3 mph - 0.00 in   Clear
8:43 AM 66.2 °F 64.4 °F 94% 29.94 in 10.0 mi NW 10.4 mph - N/A   Mostly Cloudy
8:58 AM 65.1 °F 63.3 °F 94% 29.94 in 10.0 mi North 9.2 mph - N/A   Overcast
9:58 AM 65.7 °F 62.6 °F 90% 29.99 in 10.0 mi WNW 4.6 mph - N/A   Overcast
10:33 AM 66.2 °F 62.6 °F 88% 30.01 in 10.0 mi NNW 6.9 mph - N/A   Overcast
10:58 AM 66.0 °F 62.2 °F 88% 30.02 in 10.0 mi North 9.2 mph - N/A   Overcast
11:58 AM 66.7 °F 62.2 °F 85% 30.03 in 10.0 mi North 8.1 mph - N/A   Overcast
12:58 PM 66.0 °F 59.9 °F 81% 30.06 in 10.0 mi North 12.7 mph 19.6 mph N/A   Overcast
1:13 PM 66.2 °F 59.0 °F 78% 30.06 in 10.0 mi North 10.4 mph - N/A   Scattered Clouds
1:18 PM 66.2 °F 59.0 °F 78% 30.06 in 10.0 mi North 9.2 mph - N/A   Mostly Cloudy
1:58 PM 67.1 °F 59.9 °F 78% 30.07 in 10.0 mi North 10.4 mph - N/A   Overcast
2:58 PM 66.0 °F 57.9 °F 75% 30.10 in 10.0 mi North 9.2 mph 16.1 mph N/A   Overcast
3:58 PM 68.0 °F 57.4 °F 69% 30.10 in 10.0 mi NNE 12.7 mph - N/A   Mostly Cloudy
4:58 PM 68.0 °F 56.3 °F 66% 30.10 in 10.0 mi NNE 16.1 mph 24.2 mph N/A   Mostly Cloudy
5:03 PM 68.0 °F 55.4 °F 64% 30.11 in 10.0 mi NNE 15.0 mph 23.0 mph N/A   Scattered Clouds
5:13 PM 68.0 °F 55.4 °F 64% 30.11 in 10.0 mi NNE 11.5 mph 23.0 mph N/A   Mostly Cloudy
5:58 PM 66.0 °F 55.2 °F 68% 30.14 in 10.0 mi NNE 8.1 mph 18.4 mph N/A   Mostly Cloudy
6:58 PM 65.5 °F 54.9 °F 68% 30.17 in 10.0 mi NNE 11.5 mph - N/A   Overcast
7:33 PM 64.4 °F 53.6 °F 68% 30.17 in 10.0 mi NNE 6.9 mph - N/A   Overcast
7:58 PM 64.4 °F 54.5 °F 70% 30.19 in 10.0 mi NNE 6.9 mph - N/A   Overcast
8:58 PM 64.2 °F 54.9 °F 72% 30.22 in 10.0 mi NNE 8.1 mph - N/A   Overcast
9:58 PM 63.9 °F 54.5 °F 72% 30.22 in 10.0 mi NNE 8.1 mph - N/A   Overcast
10:58 PM 63.3 °F 53.6 °F 71% 30.22 in 10.0 mi NE 10.4 mph - N/A   Overcast
11:58 PM 63.1 °F 52.7 °F 69% 30.25 in 10.0 mi NE 9.2 mph - N/A   Overcast